Terug naar catalogus

STARLINK-35272

ActiefCommunicatieVLEO
NORAD 65899·PAYLOAD·🇺🇸 United States

Gelanceerd Oct 7, 2025 vanaf Cape Canaveral Space Force Station

Loading…

Volgende Passages (komende 24 uur)

TLE

VersSource: CelesTrak SupGP

Epoch: Sep 14, 2026, 14:59 UTC

1 65899C 25224T   26257.62479167  .00014033  00000+0  41463-3 0  2574
2 65899  53.1579 209.2486 0001384 100.2330 297.6407 15.34382676    16

Volg STARLINK-35272 in realtime met AllMySat

Download on the App Store